Location: Horowhenua
(40.7500°S, 175.3333°E)
Time: 04:40:44
(UTC+00:00)

OAO 2 Rocket - Pass Details

Date: 28 January 2023
Orbit: 675 x 743 km, 35.0° (Epoch: 01 April)

Event Time Altitude Azimuth Distance (km) Brightness Sun altitude
Exits shadow 14:41:25 33° 43° (NE) 1,162 4.3 -23.8°
Drops below altitude 10° 14:44:47 10° 77° (ENE) 2,134 6.1 -23.5°
Sets 14:47:17 0° 85° (E) 3,044 7.0 -23.2°
